Home   Weather   Jeddah   Past weeks

Flag for Saudi Arabia Past Weather in Jeddah, Saudi Arabia — Yesterday and Last 2 Weeks

Now
75 °F

Sunny.


Feels Like: 78 °F
Forecast: 69 / 81 °F
Wind: 9 mph from North

Location: Jeddah King Abdul Aziz International Airport

Current Time: Feb 21, 2017 at 10:52:41 am

Latest Report: Feb 21, 2017 at 10:00 am


Visibility: 10 mi

Pressure: 29.98 "Hg

Humidity: 44%

Dew Point: 52 °F

Location of JeddahLocation

Past Weather in Jeddah — Graph

°F

Jeddah Temperature Yesterday

Maximum temperature yesterday: 79 °F (at 11:00 am)
Minimum temperature yesterday: 73 °F (at 2:00 am)
Average temperature yesterday: 75 °F

High & Low Weather Summary for the Past Weeks

 TemperatureHumidityPressure
High88 °F (Feb 7, 1:00 pm)84% (Feb 9, 12:00 am)30.09 "Hg (Feb 9, 12:00 am)
Low63 °F (Feb 17, 4:00 am)13% (Feb 18, 1:00 pm)29.77 "Hg (Feb 8, 5:00 pm)
Average75 °F50%29.93 "Hg
* Reported Feb 6 9:00 am — Feb 21 9:00 am, Jeddah, Weather by CustomWeather, © 2017

Note: Actual official high and low records may vary slightly from our data, if they occured in-between our weather recording intervals... More about our weather records

Advertising

Jeddah Weather History for the Previous 24 Hours

Scroll right to see more
 ConditionsComfort  
Time TempWeatherWind HumidityBarometerVisibility
9:00 am
Tue, Feb 21
72 °FSunny.7 mph53%29.98 "Hg10 mi
8:00 am70 °FSunny.7 mph60%29.98 "Hg10 mi
7:00 am70 °FScattered clouds.9 mph69%29.95 "HgN/A
6:00 am70 °FPassing clouds.12 mph73%29.95 "HgN/A
5:00 am72 °FPassing clouds.9 mph73%29.92 "HgN/A
4:00 am73 °FPassing clouds.14 mph65%29.92 "HgN/A
3:00 am73 °FPassing clouds.12 mph69%29.95 "HgN/A
2:00 am73 °FPassing clouds.9 mph69%29.95 "HgN/A
12:00 am73 °FPassing clouds.12 mph65%29.98 "HgN/A
11:00 pm
Mon, Feb 20
73 °FPassing clouds.9 mph65%29.98 "HgN/A
10:00 pm73 °FPassing clouds.7 mph65%29.98 "HgN/A
9:00 pm73 °FPassing clouds.9 mph61%29.98 "HgN/A
8:00 pm75 °FPassing clouds.9 mph61%29.98 "HgN/A
7:00 pm75 °FPassing clouds.12 mph61%29.98 "HgN/A
6:00 pm75 °FScattered clouds.12 mph61%29.95 "HgN/A
5:00 pm75 °FPartly sunny.14 mph61%29.95 "HgN/A
4:00 pm77 °FOvercast.14 mph57%29.95 "HgN/A
3:00 pm77 °FPartly sunny.9 mph57%29.95 "HgN/A
2:00 pm77 °FScattered clouds.7 mph61%29.98 "HgN/A
1:00 pm77 °FScattered clouds.7 mph57%29.98 "HgN/A
12:00 pm77 °FScattered clouds.7 mph57%30.01 "HgN/A
11:00 am79 °FScattered clouds.5 mph48%30.04 "HgN/A
10:00 am77 °FScattered clouds.7 mph47%30.04 "HgN/A
Weather by CustomWeather, © 2017

See weather overviewHow to use our weather pages